Regional Weather Roundup
Issued by NWS

Home | Current Version | Previous Version | Text Only | Print | Product List | Glossary On
Versions: 1 2 3 4 5 6 7 8 9 10 11 12 13 14 15 16 17 18 19 20 21 22 23 24 25 26 27 28 29 30 31 32 33 34 35 36 37 38 39 40 41 42 43 44 45 46 47 48 49 50
000
ASUS43 KMKX 290021
RWRWI

WISCONSIN REGIONAL WEATHER ROUNDUP
NATIONAL WEATHER SERVICE MILWAUKEE/SULLIVAN WI
700 PM CDT FRI APR 28 2017

NOTE: "FAIR" INDICATES FEW OR NO CLOUDS BELOW 12,000 FEET WITH NO
SIGNIFICANT WEATHER AND/OR OBSTRUCTIONS TO VISIBILITY.

WIZ001-002-006>008-014>016-023>028-290100-
NORTHWEST WISCONSIN

CITY           SKY/WX    TMP DP  RH WIND       PRES   REMARKS
SUPERIOR ARPT  CLOUDY    49  26  40 N12       29.97R
6HR MIN TEMP:  42; 6HR MAX TEMP:  53;

ASHLAND        CLOUDY    47  27  45 NW9       29.97R
6HR MIN TEMP:  40; 6HR MAX TEMP:  49;

HAYWARD        CLOUDY    48  24  39 NW5       29.95R
6HR MIN TEMP:  40; 6HR MAX TEMP:  49;

SIREN          CLOUDY    50  24  36 CALM      29.97R
6HR MIN TEMP:  42; 6HR MAX TEMP:  50;

CUMBERLAND     MOSUNNY   45  27  49 NW5       29.97R
RICE LAKE      MOSUNNY   46  27  47 NW3       29.99R
6HR MIN TEMP:  42; 6HR MAX TEMP:  48;

CHETEK         MOSUNNY   45  30  54 N6        29.97R
6HR MIN TEMP:  43; 6HR MAX TEMP:  48;

LADYSMITH      MOSUNNY   46  29  52 NW6       29.97S
6HR MIN TEMP:  43; 6HR MAX TEMP:  48;

EAU CLAIRE     CLOUDY    48  29  47 N7        29.96R
6HR MIN TEMP:  45; 6HR MAX TEMP:  50;

MENOMONIE      PTSUNNY   47  30  51 NW8       29.97R
6HR MIN TEMP:  45; 6HR MAX TEMP:  50;

NEW RICHMOND   CLOUDY    48  28  45 N7        29.98R
6HR MIN TEMP:  44; 6HR MAX TEMP:  49;

OSCEOLA        CLOUDY    48  29  47 N5        30.01R
6HR MIN TEMP:  43; 6HR MAX TEMP:  49;

$$

WIZ003>005-009-010-017-018-290100-
NORTH CENTRAL WISCONSIN

CITY           SKY/WX    TMP DP  RH WIND       PRES   REMARKS
MANITOWISH WTR CLOUDY    38  30  72 W3        29.94S
6HR MIN TEMP:  34; 6HR MAX TEMP:  39;

ARBOR VITAE    CLOUDY    40  29  66 NW6       29.95R
6HR MIN TEMP:  37; 6HR MAX TEMP:  42;

WOODRUFF       CLOUDY    40  29  66 NW6       29.95R
6HR MIN TEMP:  37; 6HR MAX TEMP:  42;

RHINELANDER    PTCLDY    41  29  62 N7        29.95R
6HR MIN TEMP:  38; 6HR MAX TEMP:  45;

EAGLE RIVER    CLOUDY    37  26  62 W5        29.95R WCI  34
6HR MIN TEMP:  35; 6HR MAX TEMP:  40;

LAND O LAKES   CLOUDY    38  27  66 W5        29.95F WCI  34
6HR MIN TEMP:  37; 6HR MAX TEMP:  40; 6HR PCP:  0.19;

PHILLIPS       MOSUNNY   42  29  59 N7        29.94R
6HR MIN TEMP:  37; 6HR MAX TEMP:  44;

TOMAHAWK       CLOUDY    42  28  57 NW5       29.95R
6HR MIN TEMP:  37; 6HR MAX TEMP:  44;

MEDFORD        CLOUDY    43  30  59 N6        29.93R
6HR MIN TEMP:  39; 6HR MAX TEMP:  45;

MERRILL        CLOUDY    44  30  59 N5        29.94R
6HR MIN TEMP:  40; 6HR MAX TEMP:  47;

$$

WIZ029-030-035-036-043>047-290100-
CENTRAL WISCONSIN

CITY           SKY/WX    TMP DP  RH WIND       PRES   REMARKS
WAUSAU         MOCLDY    45  30  55 W7        29.93R
6HR MIN TEMP:  42; 6HR MAX TEMP:  47;

MOSINEE        CLOUDY    45  34  65 NW5       29.96R
MARSHFIELD     CLOUDY    45  30  55 NW7       29.94R
6HR MIN TEMP:  43; 6HR MAX TEMP:  47;

STEVENS POINT  PTCLDY    45  30  56 NW6       29.96R
6HR MIN TEMP:  42; 6HR MAX TEMP:  46;

WAUPACA        CLOUDY    49  32  52 NW6       29.95R
6HR MIN TEMP:  49; 6HR MAX TEMP:  54;

WAUTOMA        CLOUDY    48  34  58 NW5       29.97R
6HR MIN TEMP:  47; 6HR MAX TEMP:  52;

WISC RAPIDS    PTCLDY    48  32  53 NW3       29.97R
6HR MIN TEMP:  46; 6HR MAX TEMP:  52;

CAMP DOUGLAS   CLOUDY    46  35  64 NW6       29.95R
6HR MIN TEMP:  46; 6HR MAX TEMP:  50;

$$

WIZ011>013-019>022-031-037>040-048>050-290100-
NORTHEAST WISCONSIN

CITY           SKY/WX    TMP DP  RH WIND       PRES   REMARKS
ANTIGO         PTCLDY    42  30  64 N6        29.94R
6HR MIN TEMP:  39; 6HR MAX TEMP:  45;

SHAWANO        CLOUDY    49  32  52 NW5       29.93R
6HR MIN TEMP:  49; 6HR MAX TEMP:  51;

OCONTO         CLOUDY    48  31  51 NW5       29.92
6HR MIN TEMP:  46; 6HR MAX TEMP:  50;

STURGEON BAY   MOCLDY    42  36  79 SE5       29.94R
6HR MIN TEMP:  42; 6HR MAX TEMP:  49;

GREEN BAY      CLOUDY    50  37  61 NW6       29.93R
6HR MIN TEMP:  47; 6HR MAX TEMP:  52;

MANITOWOC      CLOUDY    41  37  86 SE5       29.95R
6HR MIN TEMP:  41; 6HR MAX TEMP:  47; 6HR PCP:  0.01;

APPLETON       MOCLDY    48  32  53 NW6       29.92R
CLINTONVILLE   MOCLDY    46  30  53 NW3       29.93R
OSHKOSH        LGT RAIN  49  38  65 CALM      29.92R
6HR MIN TEMP:  46; 6HR MAX TEMP:  52; 6HR PCP:  0.01;

$$

WIZ032>034-041-042-053>061-290100-
SOUTHWEST WISCONSIN

CITY           SKY/WX    TMP DP  RH WIND       PRES   REMARKS
LA CROSSE      CLOUDY    49  33  54 N6        29.94F
6HR MIN TEMP:  47; 6HR MAX TEMP:  50;

SPARTA         CLOUDY    46  33  59 NW5       29.97R
6HR MIN TEMP:  46; 6HR MAX TEMP:  50;

VIROQUA        CLOUDY    43  37  81 CALM      29.94F
6HR MIN TEMP:  43; 6HR MAX TEMP:  47; 6HR PCP:  0.03;

BOSCOBEL       LGT RAIN  47  42  83 N6        29.94R
6HR MIN TEMP:  47; 6HR MAX TEMP:  52; 6HR PCP:  0.06;

PRAIRIE DU CHI CLOUDY    45  38  77 N6        29.94R
6HR MIN TEMP:  45; 6HR MAX TEMP:  49; 6HR PCP:  0.07;

PLATTEVILLE    CLOUDY    46  44  94 N9        29.92R
6HR MIN TEMP:  44; 6HR MAX TEMP:  48; 6HR PCP:  0.03;

$$

WIZ056-057-062-063-064-067-068-290100-
SOUTH CENTRAL WISCONSIN

CITY           SKY/WX    TMP DP  RH WIND       PRES   REMARKS
REEDSBURG      NOT AVBL
BARABOO/DELLS  LGT RAIN  45  38  77 N5        29.95R
6HR MIN TEMP:  45; 6HR MAX TEMP:  50; 6HR PCP:  0.03;

LONE ROCK      LGT RAIN  47  41  80 NE5       29.94S
6HR MIN TEMP:  47; 6HR MAX TEMP:  52; 6HR PCP:  0.10;

MINERAL POINT  LGT RAIN  46  43  87 N3        29.93R
MADISON        LGT RAIN  46  43  89 CALM      29.93R
6HR MIN TEMP:  46; 6HR MAX TEMP:  49; 6HR PCP:  0.04;

MIDDLETON      CLOUDY    48  43  84 N5        29.94R
6HR MIN TEMP:  47; 6HR MAX TEMP:  50; 6HR PCP:  0.04;

WATERTOWN      CLOUDY    47  44  87 N3        29.92R
6HR MIN TEMP:  47; 6HR MAX TEMP:  50; 6HR PCP:  0.02;

MONROE         RAIN      45  41  87 N7        29.92R
JANESVILLE     LGT RAIN  48  43  81 N5        29.91R
$$

WIZ051-052-058>065-066-070>072-290100-
SOUTHEAST WISCONSIN

CITY           SKY/WX    TMP DP  RH WIND       PRES   REMARKS
MILWAUKEE      LGT RAIN  45  40  82 N6        29.91R
6HR MIN TEMP:  45; 6HR MAX TEMP:  53; 6HR PCP: TRACE;

WAUKESHA       CLOUDY    48  39  71 E6        29.92R
MILWAUKEE/TIMM CLOUDY    46  36  66 E5        29.92R
RACINE         CLOUDY    46  39  76 NE3       29.92S
6HR MIN TEMP:  45; 6HR MAX TEMP:  50; 6HR PCP: TRACE;

KENOSHA        CLOUDY    47  41  80 NE6       29.90S
6HR MIN TEMP:  47; 6HR MAX TEMP:  52; 6HR PCP: TRACE;

FOND DU LAC    LGT RAIN  48  38  68 NE5       29.93R
6HR MIN TEMP:  47; 6HR MAX TEMP:  52; 6HR PCP:  0.01;

SHEBOYGAN      LGT RAIN  45  40  82 CALM      29.92S
6HR MIN TEMP:  45; 6HR MAX TEMP:  51; 6HR PCP: TRACE;

WEST BEND      LGT RAIN  45  43  93 CALM      29.93R
JUNEAU         LGT RAIN  46  40  78 CALM      29.93R
6HR MIN TEMP:  45; 6HR MAX TEMP:  49; 6HR PCP:  0.01;

$$

LSZ147-162-290100-
LAKE SUPERIOR

STATION/POSITION TIME  TEMP    WIND        PRES    WAVE
                       AIR SEA DIR/SP/G            HT/PER
                 (UTC) (F)     (DEG/KT/KT) (MB)    (FT/S)
DEVILS ISLAND    0000   38      10/ 14/ 15 1016.2R
SAXON HARBOR     2340   39      40/ 12/ 18 1015.2R
$$

LMZ867-665-643>646-290100-
LAKE MICHIGAN

STATION/POSITION TIME  TEMP    WIND        PRES    WAVE
                       AIR SEA DIR/SP/G            HT/PER
                 (UTC) (F)     (DEG/KT/KT) (MB)    (FT/S)
CHAMBERS ISLAND  2330   47     190/  2/  4 1013.2S
N MID LAKE BUOY  2350   38 37  180/  4/  6 1015.7R   2/ 5
NORTHPORT PIER   2340   41     160/  3/  6 1013.9S
KEWA



USA.gov is the U.S. government's official web portal to all federal, state and local government web resources and services.